Middleton, WI

2:08 AM CST on December 03, 2016 (GMT -0600)
Middleton

Weather History for KC29 - January, 2013

Change the Weather History Date:

Friday, January 18, 2013

  Actual Average (KMSN) Record (KMSN)
Temperature  
Mean Temperature 28 °F 18 °F  
Max Temperature 44 °F 26 °F 54 °F (1996)
Min Temperature 12 °F 11 °F -27 °F (1994)
Degree Days  
Heating Degree Days 37 47  
Month to date heating degree days 835  
Since 1 July heating degree days 3714  
Cooling Degree Days 0 0  
Month to date cooling degree days 0  
Year to date cooling degree days 0  
Moisture  
Dew Point 22 °F    
Average Humidity 66    
Maximum Humidity 84    
Minimum Humidity 51    
Precipitation  
Precipitation 0.00 in 0.03 in 0.80 in (1996)
Month to date precipitation 0.72  
Year to date precipitation 0.72  
Snow  
Snow 0.00 in 0.40 in 5.80 in (1936)
Month to date snowfall 7.5  
Since 1 July snowfall 25.1  
Snow Depth -    
Sea Level Pressure  
Sea Level Pressure 30.03 in    
Wind  
Wind Speed 8 mph (SSW)    
Max Wind Speed 21 mph    
Max Gust Speed 32 mph    
Visibility 10 miles    
Events      
T = Trace of Precipitation, MM = Missing Value Source: NWS Daily Summary

Daily Weather History Graph

Daily Weather History Graph

Search for Another Location

Airport or City:

Trip Planner

Search our weather history database for the weather conditions in past years. The results will help you decide how hot, cold, wet, or windy it might be!

Date:

Astronomy

Jan. 18, 2013 Rise Set
Actual Time 7:25 AM CST 4:52 PM CST
Civil Twilight 6:53 AM CST 5:23 PM CST
Nautical Twilight 6:18 AM CST 5:58 PM CST
Astronomical Twilight 5:45 AM CST 6:32 PM CST
Moon 10:50 AM CST (1/18) No Moon Set
Length of Visible Light 10h 30m
Length of Day
9h 27m
Waxing Crescent, 47% of the Moon is Illuminated
Jan 18
Waxing Crescent
Jan 18
First Quarter
Jan 26
Full
Feb 3
Last Quarter
Feb 10
New

Hourly Weather History & Observations

Time (CST) Temp. Windchill Dew Point Humidity Pressure Visibility Wind Dir Wind Speed Gust Speed Precip Events Conditions
12:15 AM 12.7 °F - 8.4 °F 83% 30.37 in 10.0 mi Calm Calm - N/A   Clear
12:35 AM 13.5 °F - 9.3 °F 84% 30.36 in 10.0 mi Calm Calm - N/A   Clear
12:55 AM 17.1 °F 11.7 °F 11.5 °F 79% 30.36 in 10.0 mi East 3.5 mph - N/A   Clear
1:15 AM 17.6 °F - 10.9 °F 75% 30.36 in 10.0 mi Calm Calm - N/A   Clear
1:35 AM 18.0 °F - 10.8 °F 73% 30.38 in 10.0 mi Calm Calm - N/A   Scattered Clouds
1:55 AM 18.5 °F - 10.0 °F 70% 30.39 in 10.0 mi Calm Calm - N/A   Mostly Cloudy
2:15 AM 18.5 °F 13.3 °F 10.0 °F 70% 30.38 in 10.0 mi ESE 3.5 mph - N/A   Overcast
2:35 AM 19.0 °F 13.9 °F 10.6 °F 70% 30.37 in 10.0 mi ESE 3.5 mph - N/A   Overcast
2:55 AM 19.2 °F 12.5 °F 11.3 °F 71% 30.37 in 10.0 mi ESE 4.6 mph - N/A   Overcast
3:15 AM 19.4 °F 12.8 °F 12.0 °F 73% 30.35 in 10.0 mi ESE 4.6 mph - N/A   Overcast
3:35 AM 19.4 °F 11.5 °F 11.8 °F 72% 30.35 in 10.0 mi SE 5.8 mph - N/A   Overcast
3:55 AM 19.4 °F 10.4 °F 11.8 °F 72% 30.32 in 10.0 mi SE 6.9 mph - N/A   Overcast
4:15 AM 19.4 °F 10.4 °F 11.5 °F 71% 30.31 in 10.0 mi SE 6.9 mph - N/A   Overcast
4:35 AM 19.4 °F 10.4 °F 11.7 °F 72% 30.30 in 7.0 mi SE 6.9 mph - N/A   Overcast
4:55 AM 19.4 °F 9.5 °F 12.2 °F 74% 30.28 in 10.0 mi SE 8.1 mph - N/A   Overcast
5:15 AM 19.4 °F 10.4 °F 12.6 °F 75% 30.29 in 10.0 mi SSE 6.9 mph - N/A   Overcast
5:35 AM 19.9 °F 10.1 °F 12.9 °F 74% 30.27 in 10.0 mi SSE 8.1 mph - N/A   Overcast
5:55 AM 20.1 °F 10.3 °F 13.1 °F 74% 30.26 in 10.0 mi SSE 8.1 mph - N/A   Overcast
6:15 AM 20.3 °F 12.5 °F 13.6 °F 75% 30.26 in 10.0 mi SSE 5.8 mph - N/A   Overcast
6:55 AM 21.6 °F 10.6 °F 14.0 °F 73% 30.24 in 10.0 mi SSE 10.4 mph - N/A   Overcast
7:15 AM 22.3 °F 10.8 °F 14.9 °F 73% 30.22 in 10.0 mi SSE 11.5 mph - N/A   Overcast
7:35 AM 23.2 °F 12.0 °F 15.6 °F 73% 30.21 in 10.0 mi SSE 11.5 mph - N/A   Overcast
7:55 AM 23.9 °F 13.5 °F 16.3 °F 73% 30.19 in 10.0 mi South 10.4 mph - N/A   Overcast
8:15 AM 25.2 °F 13.9 °F 16.9 °F 71% 30.17 in 10.0 mi South 12.7 mph 20.7 mph N/A   Overcast
8:35 AM 26.1 °F 16.2 °F 17.6 °F 70% 30.16 in 10.0 mi South 10.4 mph - N/A   Mostly Cloudy
8:55 AM 27.3 °F 17.7 °F 18.5 °F 69% 30.15 in 10.0 mi South 10.4 mph 21.9 mph N/A   Scattered Clouds
9:15 AM 28.4 °F 19.1 °F 19.2 °F 69% 30.13 in 10.0 mi South 10.4 mph - N/A   Clear
9:55 AM 31.3 °F 21.6 °F 21.2 °F 66% 30.10 in 10.0 mi South 12.7 mph 21.9 mph N/A   Scattered Clouds
10:15 AM 32.2 °F 23.2 °F 22.3 °F 67% 30.07 in 10.0 mi SSW 11.5 mph 17.3 mph N/A   Clear
10:35 AM 34.7 °F 23.7 °F 23.4 °F 63% 30.05 in 10.0 mi SSW 19.6 mph 28.8 mph N/A   Clear
10:55 AM 36.0 °F 26.3 °F 23.9 °F 62% 30.03 in 10.0 mi SSW 16.1 mph - N/A   Clear
11:15 AM 37.4 °F 28.5 °F 24.4 °F 60% 30.02 in 10.0 mi SW 15.0 mph 27.6 mph N/A   Clear
11:35 AM 38.5 °F 28.9 °F 24.6 °F 58% 30.00 in 10.0 mi SW 18.4 mph 25.3 mph N/A   Clear
11:55 AM 38.8 °F 31.2 °F 25.2 °F 58% 29.97 in 10.0 mi SSW 12.7 mph 20.7 mph N/A   Clear
12:15 PM 39.2 °F 29.8 °F 25.3 °F 58% 29.95 in 10.0 mi SSW 18.4 mph 24.2 mph N/A   Clear
12:35 PM 40.1 °F 31.0 °F 25.5 °F 56% 29.93 in 10.0 mi SSW 18.4 mph 26.5 mph N/A   Clear
12:55 PM 41.0 °F 32.5 °F 26.2 °F 56% 29.91 in 10.0 mi SSW 17.3 mph 23.0 mph N/A   Clear
1:15 PM 41.7 °F 34.4 °F 26.8 °F 55% 29.89 in 10.0 mi SSW 13.8 mph 18.4 mph N/A   Clear
1:35 PM 41.5 °F 33.2 °F 27.5 °F 57% 29.87 in 10.0 mi SSW 17.3 mph 21.9 mph N/A   Clear
1:55 PM 42.8 °F 35.8 °F 27.3 °F 54% 29.87 in 10.0 mi SW 13.8 mph 25.3 mph N/A   Clear
2:15 PM 43.9 °F 36.8 °F 27.5 °F 53% 29.86 in 10.0 mi SW 15.0 mph 26.5 mph N/A   Clear
2:35 PM 44.6 °F 37.8 °F 27.7 °F 52% 29.85 in 10.0 mi SSW 15.0 mph 24.2 mph N/A   Clear
2:55 PM 44.8 °F 36.6 °F 27.5 °F 51% 29.85 in 10.0 mi SW 20.7 mph 32.2 mph N/A   Clear
3:15 PM 44.8 °F 37.1 °F 28.0 °F 52% 29.83 in 10.0 mi SW 18.4 mph 26.5 mph N/A   Clear
3:35 PM 44.8 °F 37.1 °F 28.2 °F 52% 29.83 in 10.0 mi SW 18.4 mph 25.3 mph N/A   Clear
3:55 PM 44.6 °F 38.1 °F 28.4 °F 53% 29.83 in 10.0 mi SW 13.8 mph 25.3 mph N/A   Clear
4:15 PM 43.9 °F 36.8 °F 28.9 °F 56% 29.83 in 10.0 mi SW 15.0 mph 26.5 mph N/A   Clear
4:35 PM 43.7 °F 36.3 °F 29.3 °F 57% 29.83 in 10.0 mi SW 16.1 mph 24.2 mph N/A   Clear
4:55 PM 43.0 °F 36.0 °F 29.3 °F 59% 29.83 in 10.0 mi SW 13.8 mph 20.7 mph N/A   Clear
5:15 PM 42.4 °F 35.3 °F 29.7 °F 61% 29.83 in 10.0 mi SW 13.8 mph 18.4 mph N/A   Clear
5:35 PM 42.6 °F 36.8 °F 30.0 °F 61% 29.82 in 10.0 mi SW 10.4 mph 19.6 mph N/A   Clear
5:55 PM 42.4 °F 35.0 °F 30.2 °F 62% 29.82 in 10.0 mi SW 15.0 mph 18.4 mph N/A   Clear
6:15 PM 42.8 °F 36.6 °F 30.2 °F 61% 29.82 in 10.0 mi SW 11.5 mph 21.9 mph N/A   Clear
6:35 PM 42.3 °F 35.1 °F 30.6 °F 63% 29.83 in 10.0 mi SW 13.8 mph - N/A   Clear
6:55 PM 42.1 °F 35.7 °F 30.7 °F 64% 29.83 in 10.0 mi SW 11.5 mph 18.4 mph N/A   Clear
7:15 PM 42.4 °F 36.5 °F 30.7 °F 63% 29.83 in 10.0 mi SW 10.4 mph 17.3 mph N/A   Clear
7:35 PM 42.3 °F 35.5 °F 30.7 °F 64% 29.83 in 10.0 mi SW 12.7 mph - N/A   Clear
7:55 PM 41.9 °F 34.6 °F 30.9 °F 65% 29.82 in 10.0 mi SW 13.8 mph 20.7 mph N/A   Clear
8:15 PM 41.9 °F 34.3 °F 30.9 °F 65% 29.81 in 10.0 mi SW 15.0 mph 20.7 mph N/A   Clear
8:35 PM 41.9 °F 34.0 °F 30.9 °F 65% 29.81 in 10.0 mi SW 16.1 mph 21.9 mph N/A   Clear
8:55 PM 41.9 °F 33.7 °F 30.7 °F 65% 29.81 in 10.0 mi SW 17.3 mph 21.9 mph N/A   Clear
9:15 PM 41.9 °F 33.7 °F 30.6 °F 64% 29.81 in 10.0 mi SW 17.3 mph 23.0 mph N/A   Clear
9:35 PM 41.7 °F 34.1 °F 30.4 °F 64% 29.81 in 10.0 mi WSW 15.0 mph 19.6 mph N/A   Clear
9:55 PM 41.2 °F 34.1 °F 30.2 °F 65% 29.81 in 10.0 mi WSW 12.7 mph 18.4 mph N/A   Clear
10:15 PM 41.2 °F 32.7 °F 30.4 °F 65% 29.80 in 10.0 mi WSW 17.3 mph 23.0 mph N/A   Clear
10:35 PM 41.0 °F 33.5 °F 30.4 °F 66% 29.80 in 10.0 mi WSW 13.8 mph - N/A   Clear
10:55 PM 41.0 °F 33.1 °F 30.6 °F 66% 29.80 in 10.0 mi WSW 15.0 mph 19.6 mph N/A   Clear
11:15 PM 40.6 °F 33.0 °F 30.6 °F 67% 29.80 in 10.0 mi WSW 13.8 mph 19.6 mph N/A   Clear
11:35 PM 40.3 °F 33.4 °F 30.7 °F 69% 29.81 in 10.0 mi WSW 11.5 mph 17.3 mph N/A   Clear
11:55 PM 39.7 °F 33.2 °F 30.7 °F 70% 29.81 in 10.0 mi WSW 10.4 mph - N/A   Clear